Date,TemperatureHighF,TemperatureAvgF,TemperatureLowF,DewpointHighF,DewpointAvgF,DewpointLowF,HumidityHigh,HumidityAvg,HumidityLow,PressureMaxIn,PressureMinIn,WindSpeedMaxMPH,WindSpeedAvgMPH,GustSpeedMaxMPH,PrecipitationSumIn
2014-1-1,44.4,32.9,25.6,30.1,25.1,20.1,92,74,51,30.36,30.05,12,1,13,0.00
2014-1-2,30.9,25.3,12.7,28.9,22.9,8.9,100,91,84,30.05,29.67,21,2,21,0.00
2014-1-3,16.2,10.8,4.9,9.9,5.3,2.1,92,78,63,30.49,29.98,23,3,23,0.01
2014-1-4,40.4,19.1,0.1,17.3,8.7,-2.4,100,69,32,30.41,30.15,14,0,16,0.04
2014-1-5,55.3,35.9,15.3,47.0,30.1,13.1,98,81,57,30.18,29.39,15,0,15,0.01
2014-1-6,53.8,17.2,-5.1,47.6,11.6,-12.8,94,78,60,30.22,29.36,36,11,55,0.16
2014-1-7,5.4,-0.7,-7.1,0.7,-8.2,-14.8,82,70,63,30.50,30.22,23,6,24,0.00
2014-1-8,27.4,17.3,0.5,21.4,9.4,-3.1,92,71,57,30.57,30.45,15,1,15,0.00
2014-1-9,37.6,30.0,23.5,30.7,23.5,19.1,92,77,57,30.60,30.36,7,0,7,0.00
2014-1-10,49.8,39.3,32.3,46.1,37.7,30.7,98,94,86,30.36,29.86,6,0,6,0.04
2014-1-11,57.1,48.9,36.4,53.4,45.5,33.2,99,88,75,29.86,29.37,32,5,32,0.30
2014-1-12,40.8,35.8,27.6,33.5,30.4,25.6,94,81,72,30.05,29.69,30,5,30,0.00
2014-1-13,58.8,44.0,27.8,45.4,36.0,26.0,95,77,37,30.00,29.72,19,1,19,0.16
2014-1-14,46.4,41.4,29.8,44.7,38.2,27.4,97,89,65,29.83,29.69,13,2,14,0.13
2014-1-15,40.6,32.9,25.3,35.5,25.2,19.9,92,74,60,30.04,29.78,20,4,21,0.01
2014-1-16,35.1,28.8,22.5,21.2,19.1,17.2,85,67,52,30.02,29.83,15,1,15,0.00
2014-1-17,42.8,32.6,21.7,33.8,29.1,18.7,96,87,56,29.96,29.76,28,2,28,0.04
2014-1-18,21.7,15.7,10.0,18.9,11.8,6.3,100,84,77,30.07,29.88,14,2,15,0.00
2014-1-19,34.3,27.6,18.6,27.4,23.1,16.7,100,84,69,29.89,29.75,21,3,21,0.06
2014-1-20,38.1,34.9,28.5,31.6,28.0,24.3,92,76,69,29.90,29.67,21,4,21,0.02
2014-1-21,28.5,17.9,2.9,24.6,13.4,-2.8,92,82,65,30.09,29.82,18,5,19,0.00
2014-1-22,11.1,3.0,-11.1,4.2,-3.4,-14.4,88,75,60,30.18,30.08,12,1,12,0.00
2014-1-23,13.1,9.6,3.3,8.2,3.7,-1.8,92,77,67,30.54,30.09,22,6,23,0.00
2014-1-24,20.0,8.2,-2.3,3.7,-0.6,-5.6,87,68,45,30.58,29.91,22,2,23,0.00
2014-1-25,26.4,22.4,15.1,24.1,15.7,1.7,94,77,40,29.91,29.43,24,6,26,0.00
2014-1-26,29.5,17.3,6.4,20.9,11.4,1.2,89,77,66,29.90,29.60,22,2,22,0.00
2014-1-27,45.1,20.8,2.1,34.9,10.9,-7.5,92,65,53,30.34,29.55,33,10,34,0.15
2014-1-28,8.5,1.5,-9.1,-2.6,-7.5,-13.3,84,66,51,30.51,30.33,12,1,15,0.00
2014-1-29,17.8,3.9,-13.0,2.3,-5.1,-16.7,89,67,47,30.43,30.32,21,2,21,0.00
2014-1-30,34.6,16.4,-7.5,10.3,0.8,-11.0,87,55,26,30.42,30.02,9,0,9,0.00
2014-1-31,40.2,35.3,28.5,27.3,22.0,8.5,83,60,32,30.18,30.04,20,2,20,0.00
2014-2-1,56.7,40.9,28.2,38.5,30.5,24.0,88,68,45,30.17,29.89,12,0,12,0.00
2014-2-2,42.4,36.9,29.3,41.9,34.6,28.0,100,92,64,30.17,29.90,13,1,13,0.34
2014-2-3,29.3,24.6,9.7,28.3,22.6,7.6,96,92,83,30.38,30.07,9,1,10,0.04
2014-2-4,31.2,21.7,8.2,28.3,18.8,5.9,100,89,80,30.44,30.00,12,1,12,0.08
2014-2-5,41.0,30.8,22.6,41.0,28.1,18.9,100,90,76,30.26,29.62,32,6,34,0.81
2014-2-6,27.1,21.7,15.8,19.3,16.5,12.4,92,80,65,30.42,30.25,14,4,19,0.00
2014-2-7,25.1,18.3,7.7,19.2,11.2,4.9,92,74,54,30.43,30.32,19,4,19,0.00
2014-2-8,24.1,14.1,2.8,18.1,9.6,0.1,100,83,57,30.40,30.21,11,0,11,0.00
2014-2-9,31.5,24.4,18.5,30.9,22.0,14.9,100,90,78,30.21,29.97,18,2,19,0.01
2014-2-10,21.7,15.6,0.5,15.1,10.3,-2.3,90,80,64,30.39,30.19,13,2,13,0.00
2014-2-11,26.2,8.6,-4.9,12.5,2.4,-8.1,100,77,52,30.51,30.39,8,0,8,0.03
2014-2-12,31.8,13.6,-6.8,17.9,5.1,-10.2,89,71,43,30.50,30.10,13,0,13,0.01
2014-2-13,25.1,24.7,24.4,22.7,20.2,16.4,92,83,69,30.10,29.99,3,0,3,0.00
2014-2-14,38.2,32.4,20.4,30.4,28.6,17.4,96,86,60,29.72,29.56,8,1,22,0.12
2014-2-15,29.2,24.5,13.2,28.0,18.8,6.3,95,79,61,30.09,29.65,18,5,19,0.00
2014-2-16,27.3,19.6,6.4,23.8,15.6,3.2,92,84,74,30.35,30.00,14,2,15,0.00
2014-2-17,36.1,21.1,-1.2,31.6,12.6,-4.3,100,72,43,30.45,29.83,14,2,17,0.05
2014-2-18,48.1,39.1,29.1,34.6,29.7,23.4,90,70,45,30.07,29.88,29,5,29,0.16
2014-2-19,50.9,40.8,27.1,45.1,33.7,22.5,96,77,51,30.14,29.72,33,4,33,0.20
2014-2-20,56.0,38.1,20.9,45.0,33.4,19.5,97,84,62,30.14,29.68,6,0,8,0.08
2014-2-21,59.1,46.8,37.3,51.6,36.6,23.4,94,69,47,29.98,29.57,35,5,35,0.20
2014-2-22,55.1,42.8,32.3,30.0,24.5,20.8,78,50,30,30.04,29.95,25,3,30,0.00
2014-2-23,48.2,35.3,28.5,37.6,30.6,21.6,99,84,58,30.06,29.96,15,1,15,0.06
2014-2-24,34.4,27.3,20.8,22.3,14.3,9.2,76,58,40,30.18,30.05,25,6,27,0.01
2014-2-25,28.1,24.3,18.8,20.0,17.1,11.3,88,74,62,30.15,29.99,16,4,16,0.00
2014-2-26,25.3,21.7,14.0,19.9,13.9,6.6,85,72,49,30.09,29.87,23,7,23,0.00
2014-2-27,16.6,11.2,7.5,8.2,1.9,-0.8,74,66,61,30.21,29.76,7,1,13,0.00
2014-2-28,31.1,17.8,0.1,10.3,2.2,-3.1,87,54,27,30.39,30.21,5,1,9,0.00
2014-3-1,47.9,33.1,14.0,33.8,23.1,10.4,90,69,41,30.22,30.11,13,1,18,0.00
2014-3-2,42.0,28.5,15.3,33.2,23.8,11.9,92,83,70,30.17,30.06,7,2,13,0.00
2014-3-3,20.4,12.3,0.6,11.2,2.4,-2.6,87,65,50,30.43,30.18,9,3,18,0.06
2014-3-4,36.5,16.2,-2.9,15.1,5.0,-6.0,88,65,34,30.45,30.21,4,0,9,0.12
2014-3-5,35.7,23.5,9.5,18.9,13.2,6.9,90,67,39,30.41,30.22,9,2,14,0.00
2014-3-6,39.1,29.5,20.6,21.9,17.2,12.4,71,60,47,30.42,30.20,9,3,13,0.00
2014-3-7,54.0,36.9,21.8,37.0,28.0,17.7,93,71,50,30.19,29.94,7,1,9,0.00
2014-3-8,54.0,39.1,24.0,39.0,32.2,22.7,96,78,53,30.05,29.93,12,3,22,0.01
2014-3-9,42.3,33.4,23.6,30.7,22.8,17.5,89,66,44,30.23,30.00,9,3,15,0.00
2014-3-10,61.1,48.0,36.8,39.1,33.0,25.8,67,57,41,29.98,29.65,15,4,25,0.00
2014-3-11,69.7,56.0,43.4,46.2,41.7,36.6,78,60,42,29.70,29.57,12,2,19,0.00
2014-3-12,44.9,41.2,33.1,42.3,37.9,30.5,93,88,82,29.58,29.11,13,4,28,0.71
2014-3-13,28.1,20.6,11.0,15.7,10.5,4.9,78,65,49,30.19,29.98,17,8,24,0.00
2014-3-14,61.0,45.4,26.1,36.9,25.8,14.7,62,47,35,30.16,29.76,15,3,37,0.00
2014-3-15,53.7,46.9,36.3,42.2,32.8,26.4,87,60,35,30.11,29.74,18,6,30,0.08
2014-3-16,35.6,29.5,24.5,28.1,18.0,10.3,87,64,41,30.22,30.05,8,3,17,0.00
2014-3-17,36.9,30.2,23.9,26.8,24.1,21.4,92,79,65,30.02,29.91,6,2,12,0.09
2014-3-18,52.4,37.0,23.1,36.3,28.9,20.6,93,74,53,30.07,29.96,8,2,14,0.01
2014-3-19,61.3,46.4,28.6,48.2,39.2,26.7,95,78,53,30.01,29.73,15,3,25,0.09
2014-3-20,46.1,39.5,30.0,40.9,30.6,26.6,87,71,59,30.03,29.83,18,7,29,0.00
2014-3-21,48.6,35.5,26.7,40.0,32.1,25.5,96,88,70,30.12,29.89,5,0,8,0.06
2014-3-22,55.3,48.6,35.8,38.8,34.1,29.2,93,59,43,30.09,29.76,15,5,25,0.00
2014-3-23,36.4,31.8,21.2,30.1,22.1,11.6,84,68,46,30.32,30.09,13,4,18,0.00
2014-3-24,34.7,23.8,11.2,15.8,11.1,7.3,89,60,39,30.35,30.13,11,2,16,0.00
2014-3-25,38.2,28.9,21.6,23.7,19.5,15.2,86,69,46,30.12,29.89,8,2,22,0.00
2014-3-26,30.8,23.9,18.2,19.2,13.0,9.8,88,64,44,30.34,30.05,18,7,21,0.00
2014-3-27,56.3,35.0,14.5,21.9,16.4,11.7,90,55,22,30.36,29.99,5,1,15,0.00
2014-3-28,64.4,57.5,45.2,52.4,46.3,36.8,78,66,53,30.09,29.84,19,6,31,0.00
2014-3-29,59.4,45.9,36.5,52.3,42.3,34.4,96,88,63,30.10,29.64,8,2,18,0.88
2014-3-30,48.8,38.0,32.4,38.5,31.4,24.9,95,79,53,30.11,29.75,12,6,24,0.08
2014-3-31,62.3,38.5,23.7,30.7,24.9,21.2,93,64,25,30.23,30.10,5,0,8,0.00
2014-4-1,76.2,53.1,30.3,45.0,33.9,27.4,92,57,22,30.10,29.84,13,3,29,0.00
2014-4-2,62.0,50.8,43.6,48.8,42.6,28.2,96,78,28,30.12,29.98,6,1,16,0.44
2014-4-3,64.8,53.9,47.3,55.8,49.6,42.8,98,87,62,30.07,29.77,5,1,12,0.34
2014-4-4,68.4,58.4,46.5,64.0,55.4,38.0,99,90,72,29.79,29.52,22,4,29,0.64
2014-4-5,46.0,40.6,30.3,38.2,31.5,27.5,89,70,57,30.20,29.81,15,7,25,0.01
2014-4-6,60.3,42.4,23.6,33.3,27.9,22.4,97,63,29,30.24,30.01,6,1,12,0.00
2014-4-7,55.9,50.4,41.6,50.7,41.9,31.1,91,73,50,29.99,29.39,11,2,22,0.04
2014-4-8,59.5,51.7,44.6,52.5,41.5,33.8,94,70,45,29.72,29.37,28,6,35,0.02
2014-4-9,58.2,46.3,35.2,40.4,34.3,30.8,94,66,40,30.06,29.73,13,3,21,0.00
2014-4-10,71.9,56.7,29.6,40.4,35.5,28.1,96,50,28,30.12,29.84,13,2,23,0.00
2014-4-11,66.9,57.0,50.6,54.6,49.1,37.9,96,78,36,30.07,29.90,10,1,20,0.06
2014-4-12,76.0,57.6,39.5,53.4,42.7,36.2,99,66,25,30.20,29.92,6,1,14,0.00
2014-4-13,82.9,71.7,62.0,57.8,52.0,46.8,65,51,32,29.99,29.78,12,2,24,0.00
2014-4-14,75.5,69.6,63.1,58.2,55.4,53.1,77,61,48,29.78,29.58,14,2,28,0.00
2014-4-15,65.6,42.9,28.5,56.8,37.7,22.0,94,82,70,30.18,29.44,18,6,25,0.01
2014-4-16,27.8,26.6,25.6,21.9,21.4,20.9,82,80,78,30.23,30.18,5,2,9,0.00
2014-4-21,74.6,67.1,62.3,44.5,42.2,40.6,52,41,32,29.82,29.79,4,1,12,0.00
2014-4-22,69.5,59.1,48.5,59.7,50.0,39.5,94,73,56,29.78,29.55,13,3,20,0.01
2014-4-23,50.7,44.6,36.8,39.8,35.5,29.6,78,70,60,30.08,29.78,15,6,23,0.00
2014-4-24,60.4,43.1,26.2,34.0,28.1,24.5,96,61,26,30.20,29.93,5,0,10,0.00
2014-4-25,64.9,52.8,40.1,56.7,44.3,31.8,90,74,43,29.92,29.62,16,3,25,0.06
2014-4-26,69.4,55.1,42.1,50.7,44.4,35.7,96,70,48,29.98,29.78,20,4,26,0.01
2014-4-27,63.4,49.4,34.1,41.2,36.7,32.1,94,65,37,30.10,29.99,6,1,10,0.00
2014-4-28,64.1,53.1,44.6,53.0,44.4,35.8,97,74,50,30.01,29.80,5,0,10,0.16
2014-4-29,58.2,53.2,49.8,51.8,49.5,46.1,97,87,77,29.95,29.76,18,4,24,0.18
2014-4-30,69.3,57.3,50.4,61.4,53.9,46.2,97,89,73,29.94,29.70,6,1,12,0.57
2014-5-1,60.2,56.0,50.8,57.3,49.1,39.1,97,79,51,29.83,29.79,14,3,21,0.12
2014-5-2,51.8,51.3,49.7,41.9,41.1,40.0,72,68,64,29.82,29.79,2,1,7,0.00
2014-5-3,61.6,58.9,53.7,52.3,44.9,39.8,89,61,48,29.84,29.72,11,4,21,0.11
2014-5-4,66.7,56.4,48.3,46.9,41.1,34.1,87,58,37,30.02,29.77,18,6,39,0.00
2014-5-5,55.0,46.9,32.0,43.5,37.7,30.2,96,71,53,30.08,29.90,3,0,7,0.00
2014-5-6,70.1,54.4,37.0,46.2,41.5,36.2,98,66,36,30.00,29.88,6,1,13,0.00
2014-5-7,79.9,58.6,39.6,62.0,51.5,38.0,97,79,51,30.10,29.93,5,0,17,0.66
2014-5-8,84.4,67.6,50.1,64.7,56.8,49.3,99,72,43,30.06,29.94,10,2,18,0.00
2014-5-9,83.3,69.8,52.2,63.8,58.1,51.4,99,70,43,30.01,29.80,11,2,22,0.00
2014-5-10,70.6,65.9,58.3,62.8,60.5,56.3,97,83,71,29.96,29.86,6,2,17,0.33
2014-5-11,78.5,64.2,54.0,60.4,56.9,53.7,100,80,48,30.13,29.97,5,0,9,0.02
2014-5-12,80.2,66.3,56.3,70.3,62.8,54.5,98,89,66,30.11,30.02,6,1,13,0.34
2014-5-13,87.7,74.3,59.2,71.7,65.6,58.3,99,77,51,30.08,29.94,6,1,14,0.00
2014-5-14,69.3,66.4,63.9,63.6,63.0,62.5,96,89,82,30.09,30.02,3,1,21,0.14
2014-5-15,61.7,55.9,52.1,59.7,54.6,51.3,97,95,93,29.95,29.83,4,2,16,1.06
2014-5-16,59.1,51.2,45.4,50.4,45.9,42.4,97,83,55,30.00,29.89,6,2,13,0.36
2014-5-17,58.6,49.0,43.1,46.9,43.7,40.5,97,83,56,30.21,30.00,11,2,15,0.01
2014-5-18,62.1,49.6,38.9,45.7,40.7,37.4,98,75,43,30.29,30.21,6,1,15,0.00
2014-5-19,69.4,52.3,33.5,47.6,40.0,32.7,99,69,35,30.33,30.17,2,0,9,0.00
2014-5-20,76.5,58.2,41.3,60.5,49.6,40.0,98,77,41,30.22,29.96,5,1,15,0.00
2014-5-21,74.1,64.8,53.7,66.1,60.8,53.2,100,88,72,29.95,29.83,7,1,12,0.02
2014-5-22,76.9,66.7,55.2,67.7,59.7,49.2,99,80,50,29.96,29.81,11,2,21,0.00
2014-5-23,66.3,56.4,44.6,56.2,49.3,44.1,99,79,57,30.10,29.93,8,2,19,0.00
2014-5-24,72.8,58.7,43.7,58.0,51.6,42.4,98,80,52,30.17,30.07,4,0,11,0.00
2014-5-25,78.5,61.5,42.8,56.8,51.0,42.0,99,73,44,30.19,30.07,3,0,7,0.00
2014-5-26,82.3,65.4,45.8,61.7,55.1,45.0,99,73,44,30.13,29.96,7,1,13,0.00
2014-5-27,83.0,68.0,59.1,71.2,64.7,57.5,98,90,64,29.98,29.86,12,1,21,0.07
2014-5-28,80.7,69.8,63.3,72.4,66.6,62.7,99,90,75,29.98,29.87,2,0,11,0.02
2014-5-29,75.7,68.1,62.3,69.2,65.0,61.2,99,91,75,30.02,29.96,3,0,8,0.02
2014-5-30,76.9,64.5,57.6,61.5,58.6,55.9,97,83,52,30.13,30.01,4,0,11,0.00
2014-5-31,78.2,64.3,49.5,61.6,55.0,49.0,99,75,44,30.20,30.11,3,0,9,0.00
2014-6-1,83.7,67.2,47.4,66.4,56.6,46.3,99,72,45,30.21,30.05,6,1,12,0.00
2014-6-2,80.8,71.1,59.9,70.2,63.6,57.2,91,78,65,30.11,29.96,7,1,14,0.00
2014-6-3,82.9,72.1,66.9,72.4,67.3,63.8,95,85,64,29.96,29.83,6,1,26,0.30
2014-6-4,75.8,67.1,59.5,68.3,64.2,58.7,99,91,70,29.88,29.61,2,0,8,0.38
2014-6-5,71.4,63.0,53.0,63.3,56.3,51.3,98,80,59,29.90,29.61,6,2,17,0.02
2014-6-6,75.9,60.7,44.4,58.0,52.5,43.9,99,77,50,30.00,29.89,1,0,10,0.00
2014-6-7,81.6,64.6,46.4,61.2,54.9,45.9,99,75,44,30.04,29.88,3,0,11,0.00
2014-6-8,77.5,66.2,54.1,71.8,63.1,53.5,99,90,73,29.88,29.71,7,1,16,0.14
2014-6-9,70.8,64.5,59.7,65.0,61.3,58.2,96,90,78,29.90,29.85,5,0,11,0.00
2014-6-10,76.8,66.3,57.1,66.0,61.8,56.5,99,87,67,29.92,29.86,4,0,7,0.00
2014-6-11,84.0,69.5,61.7,71.0,65.2,61.1,99,88,60,29.90,29.75,5,0,33,0.88
2014-6-12,80.5,70.6,64.6,73.0,67.9,64.0,99,92,70,29.84,29.73,6,0,11,1.13
2014-6-13,79.2,67.6,57.2,68.7,64.5,56.1,99,90,70,29.89,29.72,7,0,20,0.17
2014-6-14,71.5,60.4,50.6,57.0,53.6,50.0,99,80,54,30.09,29.90,8,1,13,0.01
2014-6-15,84.1,65.1,48.8,62.4,55.0,48.3,99,75,36,30.15,30.02,2,0,8,0.01
2014-6-16,86.5,70.8,55.0,74.3,65.1,54.5,99,83,60,30.10,30.00,7,1,14,0.00
2014-6-17,87.2,76.4,61.4,74.3,68.6,60.8,99,79,59,30.08,29.90,8,1,18,0.00
2014-6-18,86.9,78.0,68.3,75.6,71.1,65.9,92,80,66,30.01,29.92,10,1,20,0.14
2014-6-19,78.8,69.7,64.3,71.0,67.3,63.4,99,92,77,30.03,29.93,5,1,12,0.13
2014-6-20,82.8,69.3,61.8,69.7,65.5,61.5,100,89,58,30.03,29.87,2,0,7,0.04
2014-6-21,74.2,69.6,64.6,71.1,67.7,63.8,98,94,84,29.88,29.81,5,1,8,0.47
2014-6-22,80.3,69.1,61.5,69.2,64.7,61.2,100,87,58,29.92,29.86,2,0,8,0.00
2014-6-23,85.9,73.2,59.8,75.4,67.4,59.5,100,84,62,29.97,29.89,5,0,9,0.01
2014-6-24,86.7,76.4,66.4,74.6,69.3,64.3,94,79,64,29.98,29.85,6,1,16,0.04
2014-6-25,77.3,71.7,66.2,73.1,69.7,65.6,99,93,86,29.90,29.82,5,1,18,0.16
2014-6-26,80.5,70.8,62.0,68.6,65.8,61.7,100,86,63,30.00,29.90,4,0,9,0.01
2014-6-27,85.6,72.0,59.3,71.1,64.2,59.0,100,80,47,30.07,29.98,3,0,6,0.01
2014-6-28,88.9,73.8,60.2,73.7,67.6,59.6,100,83,57,30.15,30.06,0,0,12,0.00
2014-6-29,84.4,74.4,66.2,73.6,69.6,64.7,96,86,70,30.13,29.99,7,1,13,0.01
2014-6-30,86.5,76.0,67.9,74.1,70.9,67.5,99,86,62,30.02,29.84,5,1,10,0.01
2014-7-1,87.4,77.6,67.4,76.7,72.3,66.8,99,85,68,29.88,29.76,8,1,13,0.00
2014-7-2,85.9,77.9,68.3,73.5,70.3,66.8,95,78,63,29.88,29.77,7,1,13,0.00
2014-7-3,80.5,71.6,63.3,72.6,65.0,58.7,99,81,58,30.03,29.87,14,3,19,0.00
2014-7-4,73.8,64.6,54.5,59.2,54.8,49.1,97,73,49,30.23,30.03,8,2,17,0.00
2014-7-5,78.9,62.4,45.0,58.5,52.0,44.2,99,73,39,30.29,30.13,4,0,8,0.00
2014-7-6,82.0,65.5,51.0,66.7,59.1,50.5,99,82,51,30.14,29.90,5,1,13,0.00
2014-7-7,86.1,75.6,63.2,69.1,65.3,61.7,96,72,52,29.89,29.73,18,2,22,0.00
2014-7-8,82.6,73.5,67.8,72.7,68.3,64.2,97,84,72,29.80,29.63,6,1,21,0.44
2014-7-9,82.6,72.3,63.1,69.4,64.8,62.6,100,80,53,29.94,29.79,8,1,16,0.00
2014-7-10,83.0,71.5,58.7,67.5,63.6,58.4,99,78,53,30.08,29.95,5,0,8,0.00
2014-7-11,84.0,72.0,59.4,67.1,63.7,58.5,98,78,50,30.14,30.08,2,0,9,0.00
2014-7-12,86.0,73.5,59.6,69.7,65.2,59.0,100,78,52,30.15,30.00,4,0,11,0.00
2014-7-13,86.2,74.1,67.1,77.3,69.2,65.6,97,86,67,30.01,29.83,7,1,15,0.20
2014-7-14,81.6,73.1,69.4,74.7,70.7,68.6,99,93,73,29.89,29.77,4,0,12,0.10
2014-7-15,79.1,70.9,58.2,69.6,65.0,55.9,98,83,53,29.82,29.72,8,2,16,0.09
2014-7-16,73.4,62.9,51.6,57.9,55.4,50.8,99,79,53,29.96,29.82,7,1,14,0.00
2014-7-17,77.2,64.1,53.5,60.5,56.1,52.6,99,78,44,30.12,29.97,4,0,11,0.00
2014-7-18,78.6,65.0,50.8,67.7,59.6,50.0,99,85,57,30.20,30.12,4,0,10,0.01
2014-7-19,69.2,65.6,62.4,67.0,64.4,61.8,99,96,89,30.15,30.05,6,0,9,0.15
2014-7-20,82.5,71.8,61.7,71.0,66.3,61.2,99,84,64,30.06,29.98,4,0,7,0.00
2014-7-21,86.5,76.1,65.3,73.5,69.5,64.6,99,81,59,30.09,30.01,4,0,7,0.00
2014-7-22,88.1,77.2,64.0,73.9,70.5,63.4,99,82,60,30.09,29.98,4,0,7,0.00
2014-7-23,86.1,75.0,66.3,76.7,70.0,64.3,100,86,62,29.98,29.84,12,2,16,0.05
2014-7-24,76.8,68.2,57.9,63.5,60.0,55.3,92,76,52,30.00,29.90,8,1,12,0.00
2014-7-25,79.6,65.0,49.7,61.2,56.4,48.9,99,77,49,30.08,29.95,7,1,11,0.01
2014-7-26,84.0,70.7,60.2,68.5,64.1,59.3,98,82,55,29.98,29.80,6,1,12,0.14
2014-7-27,73.7,68.6,66.6,68.6,67.0,66.0,98,95,84,29.87,29.59,2,0,21,0.70
2014-7-28,69.7,65.8,55.2,68.2,61.7,54.1,97,87,76,29.90,29.56,14,4,24,0.02
2014-7-29,69.0,59.2,49.5,56.4,53.4,48.7,99,83,62,30.02,29.90,6,1,11,0.00
2014-7-30,75.2,59.2,46.8,63.3,55.5,46.3,99,89,61,30.05,29.97,6,1,24,0.27
2014-7-31,79.8,65.7,52.8,67.4,60.8,52.2,100,86,60,30.08,30.02,5,0,11,0.01
2014-8-1,81.8,68.3,56.9,69.2,63.4,56.3,100,86,60,30.11,30.03,5,0,11,0.00
2014-8-2,83.2,70.5,61.4,69.3,64.7,60.5,99,83,59,30.09,29.97,6,1,20,0.02
2014-8-3,75.4,67.7,62.2,68.2,65.1,61.6,99,92,76,30.07,30.01,7,1,11,0.39
2014-8-4,82.6,68.5,57.4,70.3,63.2,57.1,100,85,55,30.11,30.02,4,0,9,0.01
2014-8-5,84.7,69.7,57.3,69.8,63.1,56.7,100,82,53,30.05,29.94,6,0,17,0.00
2014-8-6,79.8,68.7,62.5,68.7,64.8,59.6,99,88,68,29.96,29.88,5,0,15,0.16
2014-8-7,78.8,66.6,53.2,63.7,59.6,52.4,99,80,53,30.06,29.96,5,0,8,0.00
2014-8-8,81.1,66.7,53.7,66.8,60.2,53.3,100,82,57,30.10,30.01,4,1,10,0.00
2014-8-9,83.7,69.3,54.8,71.2,63.4,54.2,100,83,61,30.06,29.98,4,0,8,0.00
2014-8-10,85.3,71.5,57.9,70.7,65.2,57.3,100,83,59,30.05,29.95,8,1,10,0.02
2014-8-11,72.6,67.7,64.6,67.7,64.9,62.9,97,91,81,30.00,29.81,11,1,15,0.42
2014-8-12,83.0,70.1,64.6,73.0,67.6,64.0,99,92,66,29.80,29.67,8,1,20,0.75
2014-8-13,64.4,64.0,63.5,63.5,62.9,62.6,97,96,96,29.80,29.78,3,0,6,0.00
2014-8-16,71.1,70.1,68.9,61.6,60.5,58.8,77,72,67,29.93,29.92,5,1,8,0.00
2014-8-17,77.3,70.8,66.6,72.8,67.3,61.6,98,89,78,29.95,29.88,3,0,7,0.19
2014-8-18,84.1,73.7,65.7,72.3,68.7,65.4,100,86,63,29.90,29.72,4,0,10,0.01
2014-8-19,86.2,73.7,65.1,73.9,68.8,64.5,99,86,59,29.82,29.75,2,0,7,0.00
2014-8-20,82.6,71.4,65.4,72.1,67.6,64.5,98,89,67,29.94,29.82,4,1,17,0.62
2014-8-21,76.6,69.0,61.6,71.4,67.0,61.3,100,94,83,30.02,29.94,4,1,13,0.00
2014-8-22,81.2,72.3,66.6,73.7,70.2,66.0,99,94,77,29.99,29.88,3,0,8,0.08
2014-8-23,83.2,74.7,68.3,73.8,70.0,66.2,99,87,63,29.99,29.90,5,1,10,0.05
2014-8-24,79.4,69.4,59.7,69.0,64.5,59.1,100,86,68,30.07,29.98,5,0,14,0.01
2014-8-25,81.8,67.7,56.1,66.6,61.0,55.8,100,82,56,30.14,30.05,6,0,9,0.00
2014-8-26,84.1,68.2,53.9,68.0,61.6,53.3,100,82,54,30.15,30.03,1,0,6,0.01
2014-8-27,86.4,72.3,59.4,74.6,67.7,58.8,100,87,67,30.06,29.91,2,0,12,0.39
2014-8-28,69.9,65.7,61.8,67.5,63.5,60.7,96,93,91,29.99,29.98,1,0,7,0.00
2014-8-31,76.7,73.8,68.9,72.4,71.2,68.0,97,92,86,30.01,29.96,4,0,8,0.54
2014-9-1,83.6,74.0,68.7,74.7,71.2,67.8,99,91,71,29.98,29.88,6,1,15,0.22
2014-9-2,84.4,74.6,67.9,75.6,70.9,67.0,98,88,73,29.95,29.83,9,1,18,0.28
2014-9-3,84.0,71.4,62.7,71.1,66.2,62.4,100,86,57,30.06,29.93,1,0,7,0.01
2014-9-4,86.5,71.7,60.2,74.0,66.5,59.6,100,86,63,30.08,30.00,2,0,8,0.01
2014-9-5,88.6,78.7,66.1,75.5,71.8,65.8,100,81,58,30.11,29.96,2,0,12,0.00
2014-9-6,83.8,71.9,61.0,74.6,68.5,59.5,98,90,68,30.05,29.86,8,1,19,0.05
2014-9-7,73.8,62.0,51.0,60.1,55.7,50.5,100,82,54,30.18,30.05,8,1,12,0.01
2014-9-8,77.5,62.8,47.0,62.9,56.4,46.5,100,82,58,30.16,30.08,12,1,19,0.00
2014-9-9,80.9,68.8,58.2,69.6,62.9,56.6,97,82,63,30.12,29.98,6,0,12,0.00
2014-9-10,84.8,72.1,58.6,72.3,65.6,58.0,99,81,60,30.00,29.79,7,0,15,0.00
2014-9-11,75.4,70.2,60.5,70.6,65.2,56.9,97,84,76,30.05,29.75,11,2,19,0.16
2014-9-12,62.3,58.0,52.0,57.0,53.8,51.2,97,86,75,30.18,30.06,4,1,9,0.00
2014-9-13,66.7,56.8,46.9,58.5,53.0,45.8,99,88,62,30.29,30.01,7,1,15,0.07
2014-9-14,67.1,52.0,40.3,52.4,46.7,39.8,99,84,55,30.34,30.18,4,0,10,0.01
2014-9-15,70.4,54.2,40.9,57.3,48.8,40.4,99,84,54,30.24,30.02,4,0,11,0.00
2014-9-16,68.2,58.7,49.0,56.0,53.9,48.2,97,85,63,30.09,30.02,6,1,9,0.01
2014-9-17,71.1,55.4,43.8,58.3,50.3,43.3,100,85,56,30.05,29.93,3,0,7,0.01
2014-9-18,69.7,55.7,43.7,56.3,49.3,43.2,99,82,50,30.12,29.96,4,1,11,0.00
2014-9-19,74.3,57.8,40.3,60.8,52.1,39.8,99,83,60,30.20,30.10,5,1,9,0.00
2014-9-20,79.6,66.3,52.1,66.0,59.8,51.3,99,81,61,30.14,29.91,7,1,17,0.00
2014-9-21,78.2,67.1,57.1,69.8,60.8,50.3,95,81,45,29.93,29.61,14,2,19,0.20
2014-9-22,60.5,55.8,50.8,53.1,49.0,46.5,93,78,63,30.19,29.84,8,2,15,0.01
2014-9-23,69.0,54.0,37.4,51.1,46.2,36.9,99,78,49,30.37,30.29,5,0,10,0.01
2014-9-24,75.6,57.6,39.3,56.0,47.5,38.8,99,74,39,30.42,30.35,7,1,13,0.00
2014-9-25,74.9,61.9,48.1,63.0,56.4,47.3,99,84,61,30.35,30.20,6,1,9,0.00
2014-9-26,78.2,62.1,49.9,62.8,55.1,49.4,100,81,45,30.26,30.16,8,1,12,0.00
2014-9-27,79.9,60.5,43.1,60.4,52.6,42.6,99,79,47,30.25,30.13,6,0,9,0.01
2014-9-28,58.8,52.5,45.2,57.3,51.6,44.7,98,97,94,30.17,30.04,0,0,0,0.01
2014-9-29,57.8,55.4,52.1,57.0,54.8,51.5,99,98,97,30.03,29.99,0,0,2,0.00
2014-10-1,68.2,59.3,52.8,61.1,57.0,52.0,99,92,77,30.03,29.93,2,0,5,0.00
2014-10-2,78.7,61.4,48.7,62.2,55.7,48.4,100,84,52,30.10,29.96,4,0,8,0.02
2014-10-3,77.8,64.2,54.0,65.2,60.1,53.1,98,87,59,29.94,29.60,13,1,19,0.18
2014-10-4,58.9,48.2,41.9,57.6,43.2,35.0,97,83,65,29.83,29.63,13,3,33,0.16
2014-10-5,54.7,46.9,39.8,39.7,37.2,36.0,86,69,50,29.91,29.81,7,2,16,0.00
2014-10-6,68.9,55.6,44.6,55.2,48.6,37.2,94,78,57,29.90,29.76,7,1,18,0.19
2014-10-7,68.1,57.2,49.7,57.1,53.1,48.6,96,87,60,29.92,29.72,11,1,26,0.19
2014-10-8,65.1,56.6,45.7,55.1,49.4,42.9,97,79,49,30.04,29.81,13,3,23,0.00
2014-10-9,61.4,49.1,36.1,49.8,44.0,35.3,99,84,57,30.10,30.03,7,1,20,0.00
2014-10-10,59.5,52.7,47.7,53.0,50.0,46.4,98,91,76,30.09,30.02,4,0,7,0.10
2014-10-11,61.7,52.0,43.8,51.0,45.9,40.9,97,81,55,30.19,29.98,7,1,12,0.12
2014-10-12,63.9,50.4,33.2,53.7,46.1,32.4,98,86,67,30.19,30.09,5,1,11,0.00
2014-10-13,76.2,61.5,49.9,66.1,57.7,49.1,99,88,70,30.12,30.00,5,0,11,0.03
2014-10-14,80.8,69.1,55.9,65.3,60.4,54.3,97,76,56,30.01,29.68,13,2,21,0.16
2014-10-15,67.2,58.3,53.7,59.4,56.0,52.9,99,92,75,29.83,29.70,5,0,22,0.90
2014-10-16,60.7,55.3,51.5,56.0,53.5,51.2,99,94,79,29.76,29.69,3,0,7,0.09
2014-10-17,66.0,59.6,54.0,56.2,54.2,52.6,96,83,66,29.76,29.62,5,2,14,0.00
2014-10-18,64.8,52.5,45.9,53.5,46.0,42.0,91,79,66,29.96,29.62,15,6,21,0.04
2014-10-19,54.4,46.1,36.9,42.8,37.4,35.1,93,73,52,30.16,29.97,13,3,15,0.00
2014-10-20,57.5,47.2,34.1,48.1,41.4,32.8,97,82,64,30.08,29.87,5,0,13,0.01
2014-10-21,53.1,50.2,47.5,51.1,48.2,45.5,97,93,87,30.01,29.83,7,1,13,0.08
2014-10-22,50.2,48.2,46.9,47.0,45.1,43.2,97,89,82,30.17,30.00,8,2,12,0.20
2014-10-23,59.4,50.1,43.0,49.0,44.8,41.2,94,82,65,30.15,30.03,9,2,17,0.00
2014-10-24,60.9,45.5,34.6,47.7,40.1,33.8,99,83,53,30.11,29.99,6,1,12,0.00
2014-10-25,67.3,53.8,38.1,54.6,47.7,36.8,97,81,59,30.02,29.75,10,2,22,0.00
2014-10-26,59.6,49.6,40.7,49.4,37.6,34.6,79,64,50,29.85,29.77,9,2,15,0.00
2014-10-27,75.5,60.6,28.7,55.2,44.8,27.7,97,60,32,30.07,29.89,3,0,13,0.00
2014-10-28,77.9,70.0,61.1,61.0,57.0,54.0,95,64,49,29.93,29.81,12,3,26,0.10
2014-10-29,60.3,54.0,46.5,51.2,44.9,37.7,93,73,52,30.03,29.91,20,4,20,0.02
2014-10-30,50.3,44.7,36.3,42.0,38.3,34.0,93,78,65,30.11,30.03,5,0,7,0.00
2014-10-31,49.3,43.8,41.4,42.2,40.8,38.8,96,90,67,30.04,29.85,5,0,12,0.20
2014-11-1,43.3,40.8,36.0,41.1,38.2,30.1,100,90,77,30.16,29.85,11,3,17,0.13
2014-11-2,46.6,37.5,28.0,30.4,27.9,25.4,91,69,46,30.36,30.16,9,3,20,0.00
2014-11-3,57.6,40.0,23.4,32.9,26.8,22.2,97,65,29,30.41,30.21,8,1,13,0.00
2014-11-4,68.6,55.3,37.7,38.8,30.9,26.5,72,42,25,30.23,30.02,10,1,22,0.00
2014-11-5,61.8,53.1,49.6,51.3,47.9,39.1,96,84,43,30.18,30.05,18,2,25,0.04
2014-11-6,59.5,50.1,44.9,51.9,46.7,42.6,99,89,60,30.03,29.67,12,3,24,0.41
2014-11-7,44.4,38.6,27.0,42.8,34.1,25.5,95,84,63,30.07,29.79,13,5,21,0.07
2014-11-8,52.0,40.1,24.5,39.5,30.7,23.5,97,72,46,30.05,29.81,11,1,14,0.01
2014-11-9,51.9,44.0,36.0,37.9,35.1,31.9,89,72,53,30.01,29.92,10,2,15,0.00
2014-11-10,68.2,49.4,31.4,42.6,36.6,30.1,97,66,33,30.08,29.90,6,0,11,0.00
2014-11-11,72.2,52.4,32.5,43.5,36.8,30.7,95,61,28,29.94,29.78,5,1,20,0.00
2014-11-12,59.8,42.5,36.2,54.0,35.1,28.7,92,75,56,30.19,29.80,7,3,19,0.02
2014-11-13,36.0,33.1,27.5,29.9,27.3,21.8,85,79,74,30.18,30.10,9,4,16,0.00
2014-11-14,33.9,28.1,21.8,22.6,19.8,16.6,81,71,54,30.35,30.18,13,4,17,0.00
2014-11-15,38.0,25.6,14.4,24.0,17.9,12.5,95,75,48,30.47,30.28,6,0,12,0.00
2014-11-16,42.9,35.1,22.7,35.8,28.5,18.6,95,78,59,30.30,29.91,4,0,11,0.11
2014-11-17,42.0,39.0,37.2,41.5,38.3,36.2,98,97,95,29.89,29.56,8,1,16,0.45
2014-11-21,30.7,23.2,14.7,16.2,13.1,11.5,87,66,48,30.53,30.35,8,2,14,0.00
2014-11-22,49.9,30.3,10.7,33.6,22.1,8.6,93,74,48,30.49,30.13,4,0,8,0.01
2014-11-23,65.7,53.9,40.3,53.3,42.3,29.5,92,66,54,30.14,29.48,8,2,15,0.18
2014-11-24,69.6,62.6,55.6,55.0,54.0,50.2,93,74,50,29.45,29.38,15,4,26,0.00
2014-11-25,51.8,42.2,30.2,36.1,31.9,26.5,86,68,47,30.17,29.92,13,3,24,0.00
2014-11-26,34.2,32.7,29.8,32.5,30.4,26.7,97,91,80,30.18,30.01,2,0,7,0.08
2014-11-27,38.3,32.9,28.9,32.5,29.9,25.2,97,89,74,30.25,30.01,13,4,18,0.08
2014-11-28,30.1,28.0,25.5,26.2,21.9,18.0,92,78,66,30.36,30.22,9,3,19,0.00
2014-11-29,52.7,40.9,28.2,43.2,29.8,21.4,79,65,47,30.22,29.96,6,1,15,0.00
2014-11-30,63.4,59.1,53.3,52.3,49.3,44.2,74,70,64,30.02,29.92,7,2,20,0.00
2014-12-1,62.6,45.9,30.3,55.0,42.3,26.9,97,88,71,30.51,30.01,12,2,15,0.44
2014-12-2,47.3,36.7,29.0,46.8,34.3,24.5,98,91,82,30.50,30.12,5,1,10,0.10
2014-12-3,49.0,39.9,31.5,48.3,37.8,29.4,98,92,82,30.35,30.09,14,3,25,0.05
2014-12-4,36.9,33.0,28.7,31.7,29.9,26.9,96,88,79,30.45,30.35,4,0,6,0.00
2014-12-5,52.7,40.6,31.6,52.4,39.4,28.0,99,95,86,30.36,30.13,2,0,4,0.37
2014-12-6,55.2,46.0,34.8,54.9,44.5,31.0,99,95,83,30.43,30.00,9,2,18,0.76
2014-12-7,41.2,34.0,27.6,31.6,26.9,23.6,90,76,59,30.60,30.43,6,1,14,0.00
2014-12-8,42.4,33.2,25.6,30.9,26.5,22.9,94,78,46,30.49,30.18,7,0,13,0.00
2014-12-9,45.4,35.8,26.8,37.7,32.2,25.6,97,87,74,30.18,30.01,9,1,14,0.00
2014-12-10,38.9,33.5,29.3,35.7,29.9,23.7,94,86,79,30.07,30.01,13,6,21,0.02
2014-12-11,33.9,30.4,26.6,24.2,20.7,15.6,82,68,47,30.10,29.99,18,9,27,0.00
2014-12-12,32.1,28.3,20.8,25.6,23.7,19.4,94,83,72,30.25,30.10,12,4,14,0.00
2014-12-13,35.8,30.6,20.0,34.8,28.9,18.5,96,93,88,30.24,30.12,4,1,12,0.00
2014-12-14,41.4,39.6,36.0,41.0,38.6,35.0,100,96,95,30.13,30.07,8,2,11,0.02
2014-12-15,47.4,41.7,34.4,43.8,40.0,33.4,97,94,87,30.12,29.94,3,0,8,0.00
2014-12-17,34.9,32.4,30.5,30.6,27.1,24.8,86,81,77,30.16,30.08,14,7,19,0.01
2014-12-18,30.1,28.2,26.4,25.1,23.6,21.6,94,83,77,30.24,30.16,9,3,17,0.00
2014-12-19,30.5,28.9,26.9,27.1,25.8,24.6,92,88,83,30.31,30.19,7,2,12,0.00
2014-12-20,32.8,29.7,26.9,26.2,24.1,22.5,88,79,71,30.31,30.24,4,0,9,0.03
2014-12-21,37.2,30.5,23.7,28.0,25.3,21.2,90,81,69,30.36,30.21,2,0,6,0.00
2014-12-22,49.8,33.3,18.9,38.5,28.7,17.5,96,84,62,30.20,29.94,6,0,11,0.00
2014-12-23,58.8,46.8,35.3,51.6,43.1,32.7,96,87,75,29.95,29.82,3,0,4,0.00
2014-12-24,62.7,54.2,43.6,56.6,51.3,39.4,97,90,75,29.82,29.32,22,2,35,0.24
2014-12-25,42.9,40.5,39.2,39.0,35.0,32.4,90,81,73,30.24,29.63,14,5,27,0.01
2014-12-26,50.7,38.5,25.1,38.4,32.0,23.9,97,79,56,30.33,30.19,13,1,14,0.00
2014-12-27,59.6,43.5,26.9,38.1,31.3,25.9,97,67,35,30.27,29.99,8,1,16,0.00
2014-12-28,54.1,42.0,33.8,45.4,38.6,32.8,97,89,49,30.16,29.93,7,2,15,0.11
2014-12-29,39.2,33.6,27.0,32.9,28.6,21.4,97,82,63,30.33,30.15,8,1,10,0.00
2014-12-30,33.9,27.2,23.1,21.7,18.7,15.5,89,71,49,30.48,30.33,5,1,14,0.00
2014-12-31,28.3,23.9,21.2,16.3,11.2,6.9,75,59,42,30.48,30.27,12,4,21,0.00
2015-1-1,36.8,28.7,21.4,20.8,14.5,7.6,60,55,52,30.26,30.05,14,4,26,0.00
2015-1-2,40.0,31.9,22.6,24.9,22.4,19.6,88,68,53,30.39,30.18,11,2,16,0.00